Wind_Speed
11 11 11 12 12 13 14 14 15 15 15 16 16 16 16 16 16 15 15 14 14 14 15 16 16 16 15 15 14 14 13 13 12 11 10 9 8 7 5 5 5 5 6
10 10 10 11 11 12 13 13 13 14 14 14 14 15 15 15 15 14 14 14 14 14 14 14 15 15 14 13 13 13 13 13 11 10 9 8 7 6 5 4 4 4 5
9 9 9 10 10 11 12 12 12 12 12 13 13 13 13 13 13 13 13 13 13 13 13 13 13 13 13 12 11 11 11 12 11 10 8 7 6 5 4 3 3 3 4
8 8 8 9 9 10 11 11 11 11 11 11 11 12 12 12 12 12 12 12 12 12 11 11 11 11 11 11 10 10 10 10 10 9 8 7 5 4 3 2 2 2 3
6 7 7 8 8 9 9 10 10 10 10 10 10 10 10 11 11 11 11 11 11 11 10 10 10 10 10 10 9 9 8 8 9 9 9 8 6 5 4 2 1 1 1
5 6 7 7 8 8 8 9 9 9 9 9 9 9 10 10 10 10 10 10 10 10 10 9 9 9 9 9 9 8 8 7 7 8 8 8 7 5 4 3 2 1 0
6 7 8 8 9 9 9 9 8 8 8 8 8 9 9 10 10 10 10 10 10 10 10 10 10 9 9 9 8 8 8 7 7 7 7 7 8 7 5 4 3 2 2
9 9 10 10 9 9 9 9 9 8 8 8 8 9 9 10 10 10 10 10 10 10 10 10 10 10 10 9 9 8 8 8 7 7 7 7 7 7 6 5 4 4 3
10 10 10 10 10 10 10 10 10 9 9 9 10 10 10 11 11 11 11 11 11 11 11 11 11 11 11 11 10 9 9 9 9 8 8 7 7 7 7 6 5 5 5
10 10 10 11 11 11 11 12 12 11 11 12 12 12 12 12 12 13 13 13 13 13 13 13 13 13 13 12 12 12 11 11 10 10 10 9 8 8 8 7 7 7 7
10 10 11 11 12 13 13 14 14 14 15 15 15 15 15 15 15 16 16 16 16 16 16 16 16 16 15 15 15 15 14 14 13 13 13 12 11 11 10 9 9 9 9
11 12 12 13 14 15 16 17 17 18 18 18 18 18 19 19 19 19 19 20 20 20 20 20 20 20 19 18 18 18 18 17 17 16 16 16 15 14 13 12 12 11 11
15 16 16 17 18 19 20 21 22 22 22 23 23 23 23 24 24 23 24 24 24 24 24 24 24 23 23 22 22 22 21 21 20 20 20 19 19 18 17 16 16 15 14
19 21 22 23 24 24 25 26 27 27 28 28 28 28 28 28 29 28 28 28 28 28 29 29 29 28 27 27 26 25 25 25 24 24 24 23 22 21 21 20 19 18 17
24 25 26 27 28 29 30 31 32 32 33 33 32 33 33 32 33 33 33 32 32 32 32 32 33 32 31 31 30 29 29 28 28 27 27 27 25 24 23 23 23 21 21
27 28 29 30 32 32 33 35 36 37 37 37 37 38 37 36 36 37 37 36 36 35 35 35 36 36 35 35 34 33 33 32 30 30 29 29 28 27 26 25 25 25 24
28 29 30 31 32 33 34 35 36 37 38 39 39 40 40 40 39 39 39 39 38 38 38 38 39 40 39 39 38 37 36 34 33 31 31 30 30 29 28 27 27 27 27
29 30 30 31 32 33 34 34 36 37 38 38 39 40 40 41 42 42 41 40 39 40 40 40 41 42 42 42 41 40 37 36 34 32 32 33 32 31 31 30 29 29 29
31 31 32 33 33 33 34 35 36 37 37 37 37 37 37 39 39 40 40 40 40 40 41 42 42 42 42 42 41 39 38 37 34 33 31 32 33 32 31 31 30 30 30
34 34 34 34 34 35 35 36 37 37 36 36 36 36 37 38 39 40 39 40 40 40 40 41 42 42 42 41 39 37 35 35 35 35 33 32 31 32 32 32 31 30 31
34 34 35 35 35 36 37 37 36 36 35 35 35 34 35 36 37 39 39 38 39 40 40 42 42 41 41 40 38 36 34 32 32 33 33 32 31 32 32 31 30 31 31
34 35 35 36 36 37 37 37 36 35 35 34 34 34 34 34 35 36 37 38 39 39 40 40 40 41 40 41 38 35 33 32 32 32 32 31 32 33 32 31 31 31 31
35 36 36 36 36 36 36 36 35 34 34 34 33 33 33 34 34 35 36 37 38 38 39 39 40 40 39 39 38 37 35 33 32 31 31 31 31 31 32 33 32 33 32
36 36 36 35 35 35 35 34 33 33 32 32 33 33 34 34 34 35 36 37 38 38 38 38 38 39 39 38 38 37 35 33 31 30 31 32 32 31 32 33 33 32 32
34 35 35 34 33 33 32 32 32 31 32 32 33 33 34 34 34 35 36 37 38 38 39 39 38 38 38 38 37 36 36 34 32 31 31 31 32 32 32 33 32 32 32
33 33 33 32 32 32 32 31 31 31 31 32 32 33 34 35 35 36 36 37 38 39 39 39 39 39 38 38 38 37 36 35 34 33 33 32 33 33 33 32 32 31 32
Wind_Direction
55 51 46 45 48 50 51 53 54 54 52 49 46 43 41 40 38 37 35 34 35 37 38 40 40 41 41 41 41 42 44 46 48 51 54 55 58 64 77 94 109 123 129
47 42 37 36 39 41 43 44 45 45 45 44 41 39 37 35 33 31 30 30 30 31 32 34 35 36 37 37 36 36 39 43 46 47 49 52 55 60 72 97 116 135 143
40 34 29 28 30 32 34 35 35 35 35 35 33 31 29 28 26 24 23 24 24 25 25 26 28 30 32 32 32 32 34 38 42 43 44 46 49 54 64 86 115 139 156
32 22 17 19 21 22 24 25 25 24 24 23 21 19 18 17 16 15 15 15 16 17 17 18 20 22 24 25 25 25 27 30 35 36 35 36 38 40 46 65 97 122 151
17 3 359 4 9 10 10 11 13 12 9 7 5 5 5 5 5 5 6 6 6 5 6 7 10 11 12 14 15 17 17 18 23 28 28 27 28 28 25 27 54 96 122
350 339 339 344 347 350 352 352 355 356 353 351 350 351 351 353 353 353 353 354 353 352 352 354 355 356 358 359 2 6 7 7 10 15 19 20 20 18 14 8 353 332 209
317 315 320 325 328 329 331 333 335 337 337 336 335 334 335 336 338 338 339 339 340 340 340 340 340 341 343 345 347 348 351 354 355 360 6 9 11 10 4 356 347 324 277
305 306 312 316 317 318 318 319 319 320 320 318 317 317 319 321 323 324 324 324 324 325 327 327 327 327 328 329 331 331 330 334 337 340 344 348 350 355 352 343 334 320 293
305 307 309 310 309 309 309 308 306 307 307 306 306 306 306 308 309 309 310 310 310 310 312 313 314 315 315 315 316 318 317 314 317 318 321 324 327 330 333 330 320 314 299
311 312 312 310 308 306 305 303 301 299 299 299 298 297 297 297 297 298 298 299 299 299 300 300 301 301 303 303 304 306 305 303 302 301 303 306 306 307 310 311 309 301 292
310 310 310 309 308 306 303 301 299 297 296 295 294 292 290 290 290 290 291 291 291 291 292 292 292 293 292 292 294 295 294 293 292 291 290 290 290 291 293 293 293 293 288
302 302 302 301 299 299 297 295 294 294 293 292 290 288 286 285 284 284 284 284 285 285 285 285 285 286 285 285 286 287 287 285 284 285 284 282 281 280 281 282 281 280 281
294 294 293 292 292 292 291 291 290 288 287 287 285 285 283 282 281 280 280 280 280 281 281 281 281 280 280 280 280 281 282 280 279 279 279 278 276 274 273 273 272 273 273
288 289 289 288 288 288 287 286 286 285 282 283 283 280 280 278 277 276 276 276 276 277 278 278 278 277 276 276 276 276 277 277 276 276 275 275 274 272 270 267 267 268 268
285 286 286 286 287 287 286 286 287 286 284 283 282 280 278 278 275 273 272 273 273 274 273 274 275 274 274 273 272 272 272 273 274 274 273 272 271 269 270 267 265 265 264
283 283 283 284 285 286 287 286 287 287 284 281 280 278 277 277 273 269 270 271 272 273 273 273 272 271 271 270 269 268 268 269 269 271 272 271 270 269 269 268 266 263 261
287 286 286 286 286 287 288 289 289 289 286 284 282 280 279 276 274 272 268 269 271 272 272 273 273 273 271 269 267 267 265 266 266 268 269 269 269 269 269 266 264 262 260
292 291 290 290 290 290 291 291 292 291 290 288 286 285 282 280 277 276 272 269 269 270 272 273 273 273 272 269 267 266 265 265 265 267 268 268 268 269 269 266 262 262 258
294 293 293 294 295 294 294 295 296 295 295 294 292 290 285 282 280 278 275 272 271 272 272 274 275 276 275 274 271 268 266 264 263 267 269 268 266 266 266 266 263 261 258
294 294 295 296 297 298 298 299 299 298 298 297 295 291 288 285 282 279 278 276 273 272 274 274 275 276 279 279 275 273 270 264 262 265 266 266 264 263 264 264 263 259 257
293 293 296 298 300 301 303 303 303 302 301 299 297 294 291 288 285 282 280 279 277 275 276 276 275 277 280 280 277 273 269 266 263 262 261 263 264 262 263 264 261 259 256
292 295 297 300 302 304 306 306 306 305 304 302 299 296 293 289 286 284 281 279 278 277 276 276 276 277 279 280 279 277 273 269 269 263 260 260 261 261 261 262 260 258 257
292 295 298 301 303 305 307 307 308 307 306 304 301 299 295 291 288 285 283 281 280 278 277 277 276 276 276 277 277 277 277 275 269 265 261 261 262 262 260 260 259 257 257
293 295 298 301 303 305 307 308 309 309 308 306 303 301 298 294 291 287 284 282 281 279 278 277 276 276 276 277 276 276 276 275 271 265 262 262 263 263 262 260 260 258 257
291 295 297 301 303 305 307 308 309 310 310 309 307 305 301 298 295 291 287 284 282 280 279 277 276 275 275 276 277 276 276 274 272 268 262 261 262 263 262 261 260 258 257
289 292 295 298 300 303 304 306 308 309 310 310 310 308 305 301 297 294 291 287 283 281 279 277 275 275 275 275 275 274 274 273 271 269 266 263 261 260 260 261 259 257 255
Height
5916 5915 5915 5914 5913 5912 5910 5909 5908 5907 5907 5906 5906 5905 5905 5904 5904 5903 5903 5902 5901 5900 5900 5899 5897 5896 5895 5894 5893 5892 5891 5890 5889 5888 5887 5887 5886 5886 5885 5885 5885 5885 5885
5917 5917 5916 5916 5914 5913 5911 5910 5909 5908 5908 5907 5907 5906 5906 5905 5905 5904 5903 5903 5902 5901 5900 5899 5898 5897 5896 5894 5893 5892 5891 5890 5890 5889 5888 5888 5887 5887 5886 5886 5886 5886 5886
5918 5917 5917 5916 5915 5913 5912 5911 5910 5909 5909 5908 5908 5907 5907 5906 5906 5905 5904 5903 5902 5901 5900 5899 5898 5897 5896 5895 5894 5893 5892 5891 5890 5889 5889 5888 5888 5887 5887 5887 5886 5886 5887
5918 5918 5917 5916 5915 5914 5912 5911 5911 5910 5909 5909 5908 5908 5907 5906 5905 5905 5904 5903 5902 5901 5900 5900 5899 5898 5897 5896 5894 5893 5892 5891 5891 5890 5889 5888 5888 5887 5887 5887 5886 5886 5887
5918 5918 5917 5916 5915 5914 5913 5912 5911 5910 5909 5909 5908 5907 5907 5906 5905 5904 5903 5902 5901 5901 5900 5899 5898 5898 5897 5896 5894 5893 5892 5891 5890 5890 5889 5888 5887 5887 5886 5886 5886 5886 5886
5918 5918 5917 5916 5914 5913 5912 5911 5910 5909 5909 5908 5907 5907 5906 5905 5904 5903 5902 5901 5900 5900 5899 5898 5898 5897 5896 5895 5894 5893 5892 5891 5890 5889 5888 5887 5887 5886 5886 5885 5885 5885 5885
5918 5917 5916 5915 5914 5912 5911 5910 5910 5909 5908 5907 5906 5906 5905 5904 5903 5902 5901 5900 5899 5898 5897 5897 5896 5895 5895 5894 5893 5892 5891 5890 5889 5888 5887 5886 5886 5885 5885 5884 5884 5884 5884
5917 5916 5915 5914 5912 5911 5910 5909 5908 5907 5907 5906 5905 5904 5903 5903 5902 5901 5900 5899 5898 5897 5896 5895 5894 5894 5893 5892 5891 5891 5890 5889 5888 5887 5886 5885 5885 5884 5883 5883 5883 5883 5883
5916 5915 5913 5912 5911 5910 5909 5908 5907 5906 5905 5904 5904 5903 5902 5901 5900 5899 5898 5897 5896 5895 5894 5893 5892 5892 5891 5890 5890 5889 5888 5887 5886 5885 5885 5884 5883 5883 5882 5882 5882 5882 5882
5914 5913 5912 5911 5910 5908 5907 5906 5905 5904 5904 5903 5902 5901 5900 5899 5898 5897 5896 5895 5894 5893 5892 5891 5891 5890 5889 5888 5887 5887 5886 5885 5885 5884 5883 5882 5881 5881 5880 5880 5880 5880 5880
5913 5911 5910 5909 5908 5907 5906 5905 5904 5903 5902 5901 5899 5898 5897 5896 5895 5894 5893 5892 5891 5890 5890 5889 5888 5887 5886 5885 5885 5884 5883 5883 5882 5881 5881 5880 5879 5879 5879 5878 5878 5878 5878
5910 5909 5908 5907 5905 5904 5903 5902 5901 5900 5899 5898 5897 5895 5894 5893 5892 5891 5890 5888 5887 5887 5886 5885 5884 5883 5882 5882 5881 5880 5879 5879 5878 5878 5877 5877 5876 5876 5876 5876 5876 5876 5876
5908 5906 5905 5903 5902 5900 5899 5898 5897 5896 5895 5893 5893 5892 5890 5889 5888 5886 5885 5884 5883 5882 5881 5880 5879 5879 5878 5877 5876 5876 5875 5874 5874 5873 5873 5872 5872 5872 5872 5872 5872 5872 5872
5904 5902 5900 5899 5897 5896 5895 5893 5892 5891 5889 5888 5887 5886 5885 5883 5882 5881 5879 5878 5877 5876 5875 5874 5874 5873 5872 5871 5871 5870 5869 5869 5868 5868 5867 5867 5867 5867 5867 5867 5868 5868 5868
5899 5897 5895 5893 5892 5890 5889 5887 5885 5884 5883 5882 5880 5879 5878 5876 5875 5874 5872 5871 5870 5869 5868 5867 5867 5866 5865 5865 5864 5863 5863 5862 5862 5862 5862 5861 5861 5861 5861 5862 5862 5863 5863
5894 5892 5890 5887 5886 5884 5882 5880 5879 5877 5875 5874 5872 5870 5869 5868 5866 5865 5864 5863 5862 5861 5860 5859 5859 5858 5857 5856 5856 5855 5855 5855 5855 5855 5855 5855 5855 5855 5855 5856 5856 5857 5857
5888 5886 5883 5881 5879 5877 5875 5874 5872 5869 5867 5865 5863 5861 5859 5857 5856 5855 5855 5855 5854 5852 5851 5850 5850 5849 5848 5847 5847 5846 5846 5847 5847 5847 5847 5848 5848 5848 5848 5849 5849 5850 5851
5881 5879 5877 5875 5873 5871 5868 5866 5864 5862 5859 5857 5855 5852 5850 5849 5847 5846 5845 5845 5844 5843 5842 5841 5840 5839 5838 5837 5836 5837 5837 5838 5839 5839 5839 5840 5840 5840 5841 5842 5842 5843 5844
5873 5871 5869 5868 5866 5863 5861 5859 5857 5854 5852 5850 5847 5844 5842 5840 5838 5837 5836 5836 5835 5834 5833 5832 5831 5829 5828 5827 5826 5827 5828 5829 5830 5830 5831 5831 5831 5832 5833 5834 5834 5835 5836
5866 5864 5861 5860 5858 5856 5853 5851 5849 5846 5844 5841 5839 5837 5835 5833 5831 5829 5827 5827 5826 5824 5824 5823 5822 5821 5819 5817 5817 5817 5818 5820 5821 5822 5823 5823 5823 5824 5825 5826 5826 5827 5829
5861 5858 5855 5853 5851 5848 5846 5843 5840 5838 5835 5833 5831 5828 5826 5824 5822 5820 5819 5819 5817 5816 5816 5815 5813 5812 5811 5810 5809 5809 5810 5811 5812 5813 5814 5815 5816 5816 5817 5818 5819 5820 5821
5855 5852 5849 5846 5843 5840 5838 5835 5832 5829 5827 5825 5822 5820 5818 5816 5814 5812 5810 5809 5808 5807 5807 5806 5805 5804 5803 5801 5800 5800 5801 5803 5804 5804 5805 5806 5807 5808 5809 5810 5811 5813 5814
5848 5845 5842 5839 5836 5833 5830 5827 5824 5821 5818 5816 5814 5812 5810 5808 5806 5804 5802 5800 5799 5798 5797 5797 5796 5795 5794 5793 5792 5792 5792 5793 5794 5796 5797 5797 5798 5800 5801 5802 5803 5805 5806
5842 5839 5836 5833 5830 5827 5823 5820 5817 5814 5811 5809 5806 5803 5801 5799 5797 5795 5793 5791 5790 5789 5787 5787 5786 5785 5785 5785 5784 5783 5783 5784 5785 5787 5788 5789 5790 5791 5793 5794 5795 5796 5798
5836 5833 5830 5827 5823 5820 5817 5813 5810 5807 5804 5801 5798 5796 5793 5790 5787 5785 5783 5781 5780 5778 5777 5777 5776 5775 5775 5775 5775 5774 5774 5774 5776 5777 5779 5780 5781 5783 5784 5785 5786 5788 5789
5830 5827 5824 5821 5817 5814 5811 5807 5804 5801 5798 5794 5791 5788 5784 5781 5778 5776 5773 5771 5769 5768 5767 5766 5765 5765 5765 5764 5764 5764 5765 5765 5766 5767 5769 5771 5772 5773 5775 5776 5777 5779 5780